Location: Peterborough
(44.3091°N, 78.3197°W)
Time: 12:59:06
(UTC-04:00)

Tiros 1 - Visible Passes

Search period start: 21 September 2023 00:00
Search period end: 01 October 2023 00:00
Orbit: 626 x 660 km, 48.4° (Epoch: 20 September)

Date Brightness Start Highest point End Pass type
(mag) Time Alt. Az. Time Alt. Az. Time Alt. Az.
28 Sep 9.7 05:49:54 10° SSE 05:52:27 15° SE 05:55:02 10° E visible
29 Sep 8.8 06:12:47 10° SSW 06:16:49 30° SE 06:20:54 10° E visible
30 Sep 9.7 04:57:58 10° SSE 05:00:02 13° SE 05:02:06 10° ESE visible
30 Sep 7.8 06:36:48 10° SW 06:41:22 56° SSE 06:46:00 10° ENE visible
